ATLAS 5 CENTAUR R/B, 49819

Orbit data source: Space-Track

ATLAS 5 CENTAUR R/B, 49819 is space debris in GEO originally from a launch on Tue, 07 Dec 2021 UTC launched from the Air Force Eastern Test Range (AFETR). Debris objects in space refer to the collection of defunct objects orbiting the Earth. Examples of debris include non-operational satellites, rocket bodies, and fragments generated from explosions, collisions, or faulty payload assembly.

Not visible in the next 10 days
Identifier
49819, 2021-118C
Orbit
GEO
Last TLE update
17 hours ago
Origin
Flag of USUnited Launch Alliance/Lockheed Martin (US)
Manufacturer
ULA Decatur
Mission
Spacecraft
Bus & Motor
CENTAUR SEC, RL10C-1
Mass
~2,020 kg wet, 2,020 kg dry
Launch date (UTC)
2021-12-07 (4 years ago)
Launch vehicle
Unknown
Launch site
Air Force Eastern Test Range (AFETR)
Object type
Payload
Rocket body
Debris
Shape & HBR
Cyl + 1 Nozzle, 11.7 m
Radar Cross Section
32.260 m², Large (>1 m²)

Expand to show TLE details & history

TLE from 17 hours ago
0 ATLAS 5 CENTAUR R/B
1 49819U 21118C   25190.02166521 -.00000169  00000-0  00000+0 0  9990
2 49819   3.5771  82.8162 0288665 197.2743 161.3520  0.94821114 12428
Epoch: 2025-07-09T00:31Z
TLE epoch observation values (Epoch: 2025-07-09T00:31:11.874Z)
Latitude
Longitude
147.46839°
Altitude
38,594.012 km
Speed
2.936 km/s
True Right ascension
05h 29m 54s
True Declination
0° 00' 00"
Sunlit
Object was in daylight at epoch
Visualization orbit readout
Latitude
-3.04968°
Longitude
25.31748°
Altitude
36,402.463 km
Speed
3.087 km/s
Apparent Right ascension
20h 59m 50s
Apparent Declination
-7° 57' 40"
Sunlit
Object is in daylight
Visualization observer readout
Local Sidereal Time
05:21:16
Azimuth
287.941° WNW
Elevation
-31.9°
Doppler factor
1
Orbital elements
Apogee altitude
38,651.769 km
Perigee altitude
36,124.996 km
Semi-major axis
43,766.52 km
Eccentricity
0.02887
Inclination
3.5771°
RAAN
82.8162°
Arg. of periapsis
197.2743°
True anomaly
Unknown
Mean anomaly
161.352°
Eccentric anomaly
Unknown
Mean motion
0.23704 °/min
Orbital period
1,518.7 mins
BSTAR
0
Loading historical data...
49819 neighbors
Loading maneuver chart data...
Loading SW <> Apogee altitude chart data...
Loading historical data...
Loading historical data...
Loading historical data...
Loading historical data...
Loading historical data...
Loading historical data...
Loading historical data...
Other satellites on launch #118 in the year 2021 (2021-12-07 UTC)

ATLAS 5 CENTAUR R/B Visibility

Observer location: undefined°, undefined°

ATLAS 5 CENTAUR R/B is likely not visible in the next few days
Span
Click to sort rows by Start time (UTC) header in descending order
Start Az.
Max El. time (UTC)
Max El. Az.
Max El.
End time (UTC)
End Az.
|